Time,TemperatureF,DewpointF,PressureIn,WindDirection,WindDirectionDegrees,WindSpeedMPH,WindSpeedGustMPH,Humidity,HourlyPrecipIn,Conditions,Clouds,dailyrainin,SoftwareType,DateUTC
2013-08-22 00:00:00,47.6,42.7,29.95,SSW,210,0.0,0.0,83,0.00,,,0.00,Wunderground v.1.15,2013-08-22 07:00:00,
2013-08-22 00:05:00,47.4,42.5,29.95,SSW,211,0.0,0.0,83,0.00,,,0.00,Wunderground v.1.15,2013-08-22 07:05:00,
2013-08-22 00:15:00,46.9,42.6,29.95,SSW,211,0.0,0.0,85,0.00,,,0.00,Wunderground v.1.15,2013-08-22 07:15:00,
2013-08-22 00:20:00,46.7,42.4,29.95,SSW,208,0.0,0.0,85,0.00,,,0.00,Wunderground v.1.15,2013-08-22 07:20:00,
2013-08-22 00:25:00,46.4,42.1,29.95,SE,145,0.0,0.0,85,0.00,,,0.00,Wunderground v.1.15,2013-08-22 07:25:00,
2013-08-22 00:30:00,46.4,42.4,29.95,SE,146,0.0,0.0,86,0.00,,,0.00,Wunderground v.1.15,2013-08-22 07:30:00,
2013-08-22 00:35:00,46.1,42.1,29.95,SE,146,0.0,0.0,86,0.00,,,0.00,Wunderground v.1.15,2013-08-22 07:35:00,
2013-08-22 00:40:00,46.0,42.0,29.95,SE,146,0.0,0.0,86,0.00,,,0.00,Wunderground v.1.15,2013-08-22 07:40:00,
2013-08-22 00:45:00,45.9,41.9,29.95,South,173,0.0,0.0,86,0.00,,,0.00,Wunderground v.1.15,2013-08-22 07:45:00,
2013-08-22 00:50:00,45.7,42.1,29.95,South,174,0.0,0.0,87,0.00,,,0.00,Wunderground v.1.15,2013-08-22 07:50:00,
2013-08-22 00:55:00,45.5,41.9,29.95,South,174,0.0,0.0,87,0.00,,,0.00,Wunderground v.1.15,2013-08-22 07:55:00,
2013-08-22 01:00:00,45.5,41.9,29.95,South,173,0.0,0.0,87,0.00,,,0.00,Wunderground v.1.15,2013-08-22 08:00:00,
2013-08-22 01:05:00,45.3,41.7,29.95,SSE,167,0.0,0.0,87,0.00,,,0.00,Wunderground v.1.15,2013-08-22 08:05:00,
2013-08-22 01:10:00,45.1,41.5,29.95,SSE,168,0.0,0.0,87,0.00,,,0.00,Wunderground v.1.15,2013-08-22 08:10:00,
2013-08-22 01:15:00,44.8,41.5,29.95,SSE,167,0.0,0.0,88,0.00,,,0.00,Wunderground v.1.15,2013-08-22 08:15:00,
2013-08-22 01:20:00,44.6,41.6,29.95,SSE,167,0.0,0.0,89,0.00,,,0.00,Wunderground v.1.15,2013-08-22 08:20:00,
2013-08-22 01:25:00,44.4,41.4,29.95,SSE,167,0.0,0.0,89,0.00,,,0.00,Wunderground v.1.15,2013-08-22 08:25:00,
2013-08-22 01:30:00,44.2,41.2,29.95,SSE,167,0.0,0.0,89,0.00,,,0.00,Wunderground v.1.15,2013-08-22 08:30:00,
2013-08-22 01:40:00,44.1,41.1,29.95,East,84,0.0,0.0,89,0.00,,,0.00,Wunderground v.1.15,2013-08-22 08:40:00,
2013-08-22 01:45:00,44.0,41.3,29.95,East,82,0.0,0.0,90,0.00,,,0.00,Wunderground v.1.15,2013-08-22 08:45:00,
2013-08-22 01:50:00,44.0,41.3,29.95,East,82,0.0,0.0,90,0.00,,,0.00,Wunderground v.1.15,2013-08-22 08:50:00,
2013-08-22 01:55:00,43.8,40.8,29.95,East,82,0.0,0.0,89,0.00,,,0.00,Wunderground v.1.15,2013-08-22 08:55:00,
2013-08-22 02:00:00,43.5,40.8,29.95,East,82,0.0,0.0,90,0.00,,,0.00,Wunderground v.1.15,2013-08-22 09:00:00,
2013-08-22 02:05:00,43.5,40.8,29.95,East,93,0.0,0.0,90,0.00,,,0.00,Wunderground v.1.15,2013-08-22 09:05:00,
2013-08-22 02:10:00,43.4,40.9,29.94,East,93,0.0,0.0,91,0.00,,,0.00,Wunderground v.1.15,2013-08-22 09:10:00,
2013-08-22 02:15:00,43.2,40.8,29.94,East,93,0.0,0.0,91,0.00,,,0.00,Wunderground v.1.15,2013-08-22 09:15:00,
2013-08-22 02:20:00,43.1,40.7,29.94,East,93,0.0,0.0,91,0.00,,,0.00,Wunderground v.1.15,2013-08-22 09:20:00,
2013-08-22 02:25:00,43.1,40.9,29.95,East,91,0.0,0.0,92,0.00,,,0.00,Wunderground v.1.15,2013-08-22 09:25:00,
2013-08-22 02:30:00,43.3,41.1,29.95,East,89,0.0,0.0,92,0.00,,,0.00,Wunderground v.1.15,2013-08-22 09:30:00,
2013-08-22 02:35:00,43.2,40.8,29.95,East,89,0.0,0.0,91,0.00,,,0.00,Wunderground v.1.15,2013-08-22 09:35:00,
2013-08-22 02:40:00,43.1,40.7,29.95,East,89,0.0,0.0,91,0.00,,,0.00,Wunderground v.1.15,2013-08-22 09:40:00,
2013-08-22 02:45:00,42.9,40.5,29.95,SE,145,0.0,0.0,91,0.00,,,0.00,Wunderground v.1.15,2013-08-22 09:45:00,
2013-08-22 02:50:00,42.6,40.2,29.95,East,94,0.0,0.0,91,0.00,,,0.00,Wunderground v.1.15,2013-08-22 09:50:00,
2013-08-22 02:55:00,42.6,40.4,29.95,East,93,0.0,0.0,92,0.00,,,0.00,Wunderground v.1.15,2013-08-22 09:55:00,
2013-08-22 03:00:00,42.6,40.4,29.95,ESE,108,0.0,0.0,92,0.00,,,0.00,Wunderground v.1.15,2013-08-22 10:00:00,
2013-08-22 03:05:00,42.4,40.2,29.95,ESE,108,0.0,0.0,92,0.00,,,0.00,Wunderground v.1.15,2013-08-22 10:05:00,
2013-08-22 03:10:00,42.1,39.9,29.94,ESE,108,0.0,0.0,92,0.00,,,0.00,Wunderground v.1.15,2013-08-22 10:10:00,
2013-08-22 03:20:00,41.8,39.6,29.94,ESE,108,0.0,0.0,92,0.00,,,0.00,Wunderground v.1.15,2013-08-22 10:20:00,
2013-08-22 03:25:00,41.9,40.0,29.94,ESE,108,0.0,0.0,93,0.00,,,0.00,Wunderground v.1.15,2013-08-22 10:25:00,
2013-08-22 03:30:00,41.7,39.8,29.94,ESE,109,0.0,0.0,93,0.00,,,0.00,Wunderground v.1.15,2013-08-22 10:30:00,
2013-08-22 03:35:00,41.4,39.5,29.94,ESE,108,0.0,0.0,93,0.00,,,0.00,Wunderground v.1.15,2013-08-22 10:35:00,
2013-08-22 03:40:00,41.3,39.4,29.94,ESE,109,0.0,0.0,93,0.00,,,0.00,Wunderground v.1.15,2013-08-22 10:40:00,
2013-08-22 03:45:00,41.2,39.3,29.94,ESE,108,0.0,0.0,93,0.00,,,0.00,Wunderground v.1.15,2013-08-22 10:45:00,
2013-08-22 03:50:00,41.2,39.6,29.94,ESE,108,0.0,0.0,94,0.00,,,0.00,Wunderground v.1.15,2013-08-22 10:50:00,
2013-08-22 05:30:00,41.2,39.9,29.94,SSE,165,0.0,0.0,95,0.00,,,0.00,Wunderground v.1.15,2013-08-22 12:30:00,
2013-08-22 05:35:00,41.4,40.1,29.94,SW,225,0.0,0.0,95,0.00,,,0.00,Wunderground v.1.15,2013-08-22 12:35:00,
2013-08-22 05:45:00,41.6,40.3,29.94,ESE,105,0.0,0.0,95,0.00,,,0.00,Wunderground v.1.15,2013-08-22 12:45:00,
2013-08-22 05:50:00,41.8,40.5,29.95,ESE,105,0.0,0.0,95,0.00,,,0.00,Wunderground v.1.15,2013-08-22 12:50:00,
2013-08-22 05:55:00,42.0,40.7,29.95,ESE,106,0.0,0.0,95,0.00,,,0.00,Wunderground v.1.15,2013-08-22 12:55:00,
2013-08-22 06:00:00,42.3,41.0,29.95,SW,235,0.0,0.0,95,0.00,,,0.00,Wunderground v.1.15,2013-08-22 13:00:00,
2013-08-22 06:05:00,42.4,41.1,29.94,SW,233,0.0,0.0,95,0.00,,,0.00,Wunderground v.1.15,2013-08-22 13:05:00,
2013-08-22 06:10:00,42.4,41.1,29.94,SW,233,0.0,0.0,95,0.00,,,0.00,Wunderground v.1.15,2013-08-22 13:10:00,
2013-08-22 06:15:00,42.5,41.2,29.94,SE,129,0.0,0.0,95,0.00,,,0.00,Wunderground v.1.15,2013-08-22 13:15:00,
2013-08-22 06:20:00,42.7,41.4,29.94,SE,129,0.0,0.0,95,0.00,,,0.00,Wunderground v.1.15,2013-08-22 13:20:00,
2013-08-22 06:25:00,43.1,41.8,29.94,SE,143,0.0,0.0,95,0.00,,,0.00,Wunderground v.1.15,2013-08-22 13:25:00,
2013-08-22 06:30:00,43.7,42.6,29.94,South,181,0.0,0.0,96,0.00,,,0.00,Wunderground v.1.15,2013-08-22 13:30:00,
2013-08-22 06:35:00,44.2,43.1,29.94,ESE,106,0.0,0.0,96,0.00,,,0.00,Wunderground v.1.15,2013-08-22 13:35:00,
2013-08-22 06:40:00,44.9,43.6,29.95,WNW,293,0.0,1.0,95,0.00,,,0.00,Wunderground v.1.15,2013-08-22 13:40:00,
2013-08-22 06:45:00,45.6,44.3,29.95,East,92,0.0,1.0,95,0.00,,,0.00,Wunderground v.1.15,2013-08-22 13:45:00,
2013-08-22 06:50:00,46.4,44.8,29.95,SSW,211,0.0,1.0,94,0.00,,,0.00,Wunderground v.1.15,2013-08-22 13:50:00,
2013-08-22 06:55:00,46.8,45.2,29.95,SW,219,0.0,1.0,94,0.00,,,0.00,Wunderground v.1.15,2013-08-22 13:55:00,
2013-08-22 07:00:00,47.0,45.4,29.95,SW,218,0.0,0.0,94,0.00,,,0.00,Wunderground v.1.15,2013-08-22 14:00:00,
2013-08-22 07:05:00,47.5,45.6,29.95,West,263,0.0,0.0,93,0.00,,,0.00,Wunderground v.1.15,2013-08-22 14:05:00,
2013-08-22 07:10:00,48.0,45.8,29.95,West,262,0.0,0.0,92,0.00,,,0.00,Wunderground v.1.15,2013-08-22 14:10:00,
2013-08-22 07:15:00,48.7,46.2,29.95,West,262,0.0,0.0,91,0.00,,,0.00,Wunderground v.1.15,2013-08-22 14:15:00,
2013-08-22 07:20:00,49.1,46.6,29.95,SE,139,0.0,0.0,91,0.00,,,0.00,Wunderground v.1.15,2013-08-22 14:20:00,
2013-08-22 07:25:00,49.0,46.5,29.95,SE,139,0.0,0.0,91,0.00,,,0.00,Wunderground v.1.15,2013-08-22 14:25:00,
2013-08-22 07:30:00,49.0,46.5,29.95,SE,140,0.0,0.0,91,0.00,,,0.00,Wunderground v.1.15,2013-08-22 14:30:00,
2013-08-22 07:35:00,49.2,46.7,29.95,SE,139,0.0,0.0,91,0.00,,,0.00,Wunderground v.1.15,2013-08-22 14:35:00,
2013-08-22 07:40:00,49.5,47.3,29.95,SE,140,0.0,0.0,92,0.00,,,0.00,Wunderground v.1.15,2013-08-22 14:40:00,
2013-08-22 07:45:00,50.0,47.8,29.95,SE,140,0.0,0.0,92,0.00,,,0.00,Wunderground v.1.15,2013-08-22 14:45:00,
2013-08-22 07:50:00,50.6,48.4,29.95,SE,139,0.0,0.0,92,0.00,,,0.00,Wunderground v.1.15,2013-08-22 14:50:00,
2013-08-22 07:55:00,51.4,48.9,29.94,South,174,0.0,0.0,91,0.00,,,0.00,Wunderground v.1.15,2013-08-22 14:55:00,
2013-08-22 08:00:00,52.2,49.4,29.94,West,274,0.0,0.0,90,0.00,,,0.00,Wunderground v.1.15,2013-08-22 15:00:00,
2013-08-22 08:05:00,52.8,49.0,29.94,WSW,255,0.0,0.0,87,0.00,,,0.00,Wunderground v.1.15,2013-08-22 15:05:00,
2013-08-22 08:10:00,53.4,49.6,29.94,WSW,255,0.0,0.0,87,0.00,,,0.00,Wunderground v.1.15,2013-08-22 15:10:00,
2013-08-22 08:15:00,54.1,49.4,29.94,West,262,0.0,0.0,84,0.00,,,0.00,Wunderground v.1.15,2013-08-22 15:15:00,
2013-08-22 08:20:00,54.9,50.2,29.94,WSW,246,0.0,0.0,84,0.00,,,0.00,Wunderground v.1.15,2013-08-22 15:20:00,
2013-08-22 08:25:00,55.5,50.4,29.93,WSW,246,0.0,0.0,83,0.00,,,0.00,Wunderground v.1.15,2013-08-22 15:25:00,
2013-08-22 08:30:00,56.3,50.9,29.94,WSW,247,0.0,0.0,82,0.00,,,0.00,Wunderground v.1.15,2013-08-22 15:30:00,
2013-08-22 08:35:00,57.1,51.0,29.93,WSW,246,0.0,0.0,80,0.00,,,0.00,Wunderground v.1.15,2013-08-22 15:35:00,
2013-08-22 08:40:00,57.9,51.8,29.93,WSW,246,0.0,0.0,80,0.00,,,0.00,Wunderground v.1.15,2013-08-22 15:40:00,
2013-08-22 08:45:00,58.7,50.8,29.93,NE,34,0.0,0.0,75,0.00,,,0.00,Wunderground v.1.15,2013-08-22 15:45:00,
2013-08-22 08:50:00,59.7,52.1,29.93,NE,34,0.0,0.0,76,0.00,,,0.00,Wunderground v.1.15,2013-08-22 15:50:00,
2013-08-22 08:55:00,60.0,52.1,29.93,North,8,0.0,0.0,75,0.00,,,0.00,Wunderground v.1.15,2013-08-22 15:55:00,
2013-08-22 09:00:00,60.3,52.7,29.93,North,5,0.0,0.0,76,0.00,,,0.00,Wunderground v.1.15,2013-08-22 16:00:00,
2013-08-22 09:05:00,60.9,53.3,29.93,WNW,287,0.0,0.0,76,0.00,,,0.00,Wunderground v.1.15,2013-08-22 16:05:00,
2013-08-22 09:15:00,63.8,51.8,29.93,ENE,60,0.0,2.0,65,0.00,,,0.00,Wunderground v.1.15,2013-08-22 16:15:00,
2013-08-22 09:20:00,65.3,51.5,29.93,SE,126,1.0,1.0,61,0.00,,,0.00,Wunderground v.1.15,2013-08-22 16:20:00,
2013-08-22 09:25:00,66.7,51.9,29.92,NE,35,1.0,2.0,59,0.00,,,0.00,Wunderground v.1.15,2013-08-22 16:25:00,
2013-08-22 09:30:00,67.3,50.6,29.92,WNW,301,1.0,1.0,55,0.00,,,0.00,Wunderground v.1.15,2013-08-22 16:30:00,
2013-08-22 09:35:00,68.2,51.9,29.91,WNW,290,1.0,1.0,56,0.00,,,0.00,Wunderground v.1.15,2013-08-22 16:35:00,
2013-08-22 09:45:00,70.1,49.5,29.91,SSW,213,1.0,3.0,48,0.00,,,0.00,Wunderground v.1.15,2013-08-22 16:45:00,
2013-08-22 09:50:00,70.7,48.9,29.91,East,83,1.0,1.0,46,0.00,,,0.00,Wunderground v.1.15,2013-08-22 16:50:00,
2013-08-22 09:55:00,71.2,49.4,29.91,SW,233,1.0,4.0,46,0.00,,,0.00,Wunderground v.1.15,2013-08-22 16:55:00,
2013-08-22 10:00:00,72.2,46.5,29.91,SSE,165,2.0,3.0,40,0.00,,,0.00,Wunderground v.1.15,2013-08-22 17:00:00,
2013-08-22 10:05:00,73.1,47.3,29.91,SW,214,2.0,3.0,40,0.00,,,0.00,Wunderground v.1.15,2013-08-22 17:05:00,
2013-08-22 10:10:00,74.0,51.3,29.91,WSW,256,2.0,2.0,45,0.00,,,0.00,Wunderground v.1.15,2013-08-22 17:10:00,
2013-08-22 10:15:00,73.8,46.6,29.90,SE,127,2.0,3.0,38,0.00,,,0.00,Wunderground v.1.15,2013-08-22 17:15:00,
2013-08-22 10:20:00,74.4,47.1,29.90,SW,221,2.0,2.0,38,0.00,,,0.00,Wunderground v.1.15,2013-08-22 17:20:00,
2013-08-22 10:25:00,74.7,46.7,29.90,South,190,2.0,3.0,37,0.00,,,0.00,Wunderground v.1.15,2013-08-22 17:25:00,
2013-08-22 10:30:00,75.1,47.8,29.89,SE,134,2.0,2.0,38,0.00,,,0.00,Wunderground v.1.15,2013-08-22 17:30:00,
2013-08-22 10:35:00,75.3,45.7,29.89,SW,232,2.0,3.0,35,0.00,,,0.00,Wunderground v.1.15,2013-08-22 17:35:00,
2013-08-22 10:40:00,75.4,45.1,29.89,East,90,2.0,2.0,34,0.00,,,0.00,Wunderground v.1.15,2013-08-22 17:40:00,
2013-08-22 10:45:00,75.9,46.3,29.89,SSW,204,1.0,3.0,35,0.00,,,0.00,Wunderground v.1.15,2013-08-22 17:45:00,
2013-08-22 10:50:00,76.2,45.0,29.89,WNW,302,2.0,2.0,33,0.00,,,0.00,Wunderground v.1.15,2013-08-22 17:50:00,
2013-08-22 10:55:00,76.5,44.4,29.89,NNE,18,2.0,2.0,32,0.00,,,0.00,Wunderground v.1.15,2013-08-22 17:55:00,
2013-08-22 11:00:00,76.6,44.5,29.89,SSE,159,2.0,2.0,32,0.00,,,0.00,Wunderground v.1.15,2013-08-22 18:00:00,
2013-08-22 11:05:00,76.7,43.8,29.89,ESE,108,2.0,2.0,31,0.00,,,0.00,Wunderground v.1.15,2013-08-22 18:05:00,
2013-08-22 11:15:00,77.1,44.1,29.88,SW,218,2.0,2.0,31,0.00,,,0.00,Wunderground v.1.15,2013-08-22 18:15:00,
2013-08-22 11:20:00,77.6,43.7,29.88,NNE,33,1.0,1.0,30,0.00,,,0.00,Wunderground v.1.15,2013-08-22 18:20:00,
2013-08-22 11:25:00,78.2,49.1,29.88,WNW,300,0.0,4.0,36,0.00,,,0.00,Wunderground v.1.15,2013-08-22 18:25:00,
2013-08-22 11:30:00,78.8,43.8,29.87,SSE,158,1.0,1.0,29,0.00,,,0.00,Wunderground v.1.15,2013-08-22 18:30:00,
2013-08-22 11:40:00,79.1,44.1,29.87,ESE,110,1.0,2.0,29,0.00,,,0.00,Wunderground v.1.15,2013-08-22 18:40:00,
2013-08-22 11:45:00,79.2,45.1,29.87,North,8,1.0,2.0,30,0.00,,,0.00,Wunderground v.1.15,2013-08-22 18:45:00,
2013-08-22 11:50:00,79.7,46.4,29.87,SE,139,1.0,2.0,31,0.00,,,0.00,Wunderground v.1.15,2013-08-22 18:50:00,
2013-08-22 11:55:00,80.2,45.1,29.87,ENE,77,1.0,2.0,29,0.00,,,0.00,Wunderground v.1.15,2013-08-22 18:55:00,
2013-08-22 12:00:00,80.2,45.1,29.87,SSE,148,2.0,2.0,29,0.00,,,0.00,Wunderground v.1.15,2013-08-22 19:00:00,
2013-08-22 12:05:00,80.6,45.4,29.86,NW,316,1.0,2.0,29,0.00,,,0.00,Wunderground v.1.15,2013-08-22 19:05:00,
2013-08-22 12:10:00,80.7,44.6,29.86,ENE,78,1.0,2.0,28,0.00,,,0.00,Wunderground v.1.15,2013-08-22 19:10:00,
2013-08-22 12:15:00,81.0,45.7,29.86,ESE,114,1.0,2.0,29,0.00,,,0.00,Wunderground v.1.15,2013-08-22 19:15:00,
2013-08-22 12:20:00,81.4,46.1,29.86,ENE,63,1.0,1.0,29,0.00,,,0.00,Wunderground v.1.15,2013-08-22 19:20:00,
2013-08-22 12:25:00,81.9,46.5,29.86,SW,233,1.0,3.0,29,0.00,,,0.00,Wunderground v.1.15,2013-08-22 19:25:00,
2013-08-22 12:30:00,81.8,47.3,29.86,SE,142,2.0,2.0,30,0.00,,,0.00,Wunderground v.1.15,2013-08-22 19:30:00,
2013-08-22 12:35:00,82.0,46.6,29.85,NNE,27,2.0,2.0,29,0.00,,,0.00,Wunderground v.1.15,2013-08-22 19:35:00,
2013-08-22 12:40:00,82.0,47.5,29.85,SSE,167,2.0,2.0,30,0.00,,,0.00,Wunderground v.1.15,2013-08-22 19:40:00,
2013-08-22 12:45:00,82.6,47.1,29.85,West,277,2.0,2.0,29,0.00,,,0.00,Wunderground v.1.15,2013-08-22 19:45:00,
2013-08-22 12:50:00,82.1,46.7,29.85,NW,323,1.0,2.0,29,0.00,,,0.00,Wunderground v.1.15,2013-08-22 19:50:00,
2013-08-22 12:55:00,82.2,46.8,29.85,SSE,153,1.0,2.0,29,0.00,,,0.00,Wunderground v.1.15,2013-08-22 19:55:00,
2013-08-22 13:00:00,82.4,46.0,29.84,NW,309,2.0,2.0,28,0.00,,,0.00,Wunderground v.1.15,2013-08-22 20:00:00,
2013-08-22 13:05:00,82.6,46.2,29.84,South,186,2.0,2.0,28,0.00,,,0.00,Wunderground v.1.15,2013-08-22 20:05:00,
2013-08-22 13:10:00,83.0,47.5,29.84,West,281,1.0,1.0,29,0.00,,,0.00,Wunderground v.1.15,2013-08-22 20:10:00,
2013-08-22 13:15:00,82.8,46.4,29.84,SSE,163,1.0,2.0,28,0.00,,,0.00,Wunderground v.1.15,2013-08-22 20:15:00,
2013-08-22 13:20:00,83.6,48.0,29.84,South,187,1.0,1.0,29,0.00,,,0.00,Wunderground v.1.15,2013-08-22 20:20:00,
2013-08-22 13:25:00,83.4,45.9,29.84,NNE,22,1.0,3.0,27,0.00,,,0.00,Wunderground v.1.15,2013-08-22 20:25:00,
2013-08-22 13:30:00,83.0,45.6,29.84,NW,310,1.0,3.0,27,0.00,,,0.00,Wunderground v.1.15,2013-08-22 20:30:00,
2013-08-22 13:35:00,83.6,46.1,29.83,South,187,2.0,3.0,27,0.00,,,0.00,Wunderground v.1.15,2013-08-22 20:35:00,
2013-08-22 13:40:00,84.5,47.8,29.84,SSE,160,2.0,2.0,28,0.00,,,0.00,Wunderground v.1.15,2013-08-22 20:40:00,
2013-08-22 13:50:00,84.4,44.7,29.83,WNW,288,2.0,2.0,25,0.00,,,0.00,Wunderground v.1.15,2013-08-22 20:50:00,
2013-08-22 13:55:00,84.6,46.9,29.83,West,273,1.0,2.0,27,0.00,,,0.00,Wunderground v.1.15,2013-08-22 20:55:00,
2013-08-22 14:00:00,85.1,48.3,29.83,South,169,1.0,1.0,28,0.00,,,0.00,Wunderground v.1.15,2013-08-22 21:00:00,
2013-08-22 14:05:00,85.6,44.7,29.83,West,259,1.0,1.0,24,0.00,,,0.00,Wunderground v.1.15,2013-08-22 21:05:00,
2013-08-22 14:10:00,85.1,46.4,29.82,SSW,204,1.0,3.0,26,0.00,,,0.00,Wunderground v.1.15,2013-08-22 21:10:00,
2013-08-22 14:15:00,85.4,45.6,29.82,SE,146,1.0,3.0,25,0.00,,,0.00,Wunderground v.1.15,2013-08-22 21:15:00,
2013-08-22 14:25:00,86.7,46.7,29.82,SW,217,1.0,2.0,25,0.00,,,0.00,Wunderground v.1.15,2013-08-22 21:25:00,
2013-08-22 14:30:00,86.7,44.5,29.82,NE,37,1.0,1.0,23,0.00,,,0.00,Wunderground v.1.15,2013-08-22 21:30:00,
2013-08-22 14:35:00,86.8,44.6,29.82,SSE,165,1.0,1.0,23,0.00,,,0.00,Wunderground v.1.15,2013-08-22 21:35:00,
2013-08-22 14:40:00,86.5,45.4,29.81,WNW,288,1.0,1.0,24,0.00,,,0.00,Wunderground v.1.15,2013-08-22 21:40:00,
2013-08-22 14:45:00,86.1,45.1,29.81,WSW,240,1.0,2.0,24,0.00,,,0.00,Wunderground v.1.15,2013-08-22 21:45:00,
2013-08-22 14:50:00,86.5,45.4,29.81,SSE,167,1.0,1.0,24,0.00,,,0.00,Wunderground v.1.15,2013-08-22 21:50:00,
2013-08-22 14:55:00,87.0,45.8,29.81,East,81,1.0,1.0,24,0.00,,,0.00,Wunderground v.1.15,2013-08-22 21:55:00,
2013-08-22 15:00:00,87.2,48.1,29.80,ESE,112,1.0,1.0,26,0.00,,,0.00,Wunderground v.1.15,2013-08-22 22:00:00,
2013-08-22 15:05:00,87.4,47.3,29.80,South,185,1.0,1.0,25,0.00,,,0.00,Wunderground v.1.15,2013-08-22 22:05:00,
2013-08-22 15:10:00,87.9,44.3,29.80,ENE,63,1.0,1.0,22,0.00,,,0.00,Wunderground v.1.15,2013-08-22 22:10:00,
2013-08-22 15:15:00,88.0,46.7,29.79,SSE,157,1.0,1.0,24,0.00,,,0.00,Wunderground v.1.15,2013-08-22 22:15:00,
2013-08-22 15:20:00,88.1,44.5,29.79,WNW,283,1.0,1.0,22,0.00,,,0.00,Wunderground v.1.15,2013-08-22 22:20:00,
2013-08-22 15:25:00,88.4,45.9,29.79,WNW,284,1.0,1.0,23,0.00,,,0.00,Wunderground v.1.15,2013-08-22 22:25:00,
2013-08-22 15:30:00,88.7,47.3,29.78,SSE,163,1.0,1.0,24,0.00,,,0.00,Wunderground v.1.15,2013-08-22 22:30:00,
2013-08-22 15:35:00,88.9,47.4,29.78,SE,131,1.0,1.0,24,0.00,,,0.00,Wunderground v.1.15,2013-08-22 22:35:00,
2013-08-22 15:40:00,88.7,45.0,29.78,SSE,160,2.0,2.0,22,0.00,,,0.00,Wunderground v.1.15,2013-08-22 22:40:00,
2013-08-22 15:45:00,89.2,45.4,29.77,SSW,210,1.0,2.0,22,0.00,,,0.00,Wunderground v.1.15,2013-08-22 22:45:00,
2013-08-22 15:50:00,89.9,47.1,29.77,ESE,119,2.0,3.0,23,0.00,,,0.00,Wunderground v.1.15,2013-08-22 22:50:00,
2013-08-22 15:55:00,89.0,45.2,29.77,South,170,3.0,3.0,22,0.00,,,0.00,Wunderground v.1.15,2013-08-22 22:55:00,
2013-08-22 16:00:00,89.3,47.8,29.76,NW,308,1.0,1.0,24,0.00,,,0.00,Wunderground v.1.15,2013-08-22 23:00:00,
2013-08-22 16:05:00,89.8,47.1,29.76,SSE,150,1.0,3.0,23,0.00,,,0.00,Wunderground v.1.15,2013-08-22 23:05:00,
2013-08-22 16:15:00,89.5,45.6,29.76,ESE,120,1.0,2.0,22,0.00,,,0.00,Wunderground v.1.15,2013-08-22 23:15:00,
2013-08-22 16:20:00,90.5,47.6,29.76,SSE,148,1.0,1.0,23,0.00,,,0.00,Wunderground v.1.15,2013-08-22 23:20:00,
2013-08-22 16:25:00,90.1,44.9,29.75,WSW,244,1.0,1.0,21,0.00,,,0.00,Wunderground v.1.15,2013-08-22 23:25:00,
2013-08-22 16:30:00,88.8,45.0,29.75,WNW,298,1.0,1.0,22,0.00,,,0.00,Wunderground v.1.15,2013-08-22 23:30:00,
2013-08-22 16:35:00,86.6,46.6,29.75,WNW,297,1.0,1.0,25,0.00,,,0.00,Wunderground v.1.15,2013-08-22 23:35:00,
2013-08-22 16:40:00,86.3,49.4,29.75,WNW,297,0.0,0.0,28,0.00,,,0.00,Wunderground v.1.15,2013-08-22 23:40:00,
2013-08-22 16:45:00,85.7,49.8,29.75,WNW,298,0.0,0.0,29,0.00,,,0.00,Wunderground v.1.15,2013-08-22 23:45:00,
2013-08-22 16:50:00,85.3,48.5,29.74,West,277,0.0,0.0,28,0.00,,,0.00,Wunderground v.1.15,2013-08-22 23:50:00,
2013-08-22 16:55:00,85.7,49.8,29.74,SW,233,0.0,0.0,29,0.00,,,0.00,Wunderground v.1.15,2013-08-22 23:55:00,
2013-08-22 17:00:00,85.3,55.3,29.74,SW,233,0.0,0.0,36,0.00,,,0.00,Wunderground v.1.15,2013-08-23 00:00:00,
2013-08-22 17:05:00,84.9,52.6,29.74,SW,233,0.0,0.0,33,0.00,,,0.00,Wunderground v.1.15,2013-08-23 00:05:00,
2013-08-22 17:10:00,85.0,51.0,29.73,SW,233,0.0,0.0,31,0.00,,,0.00,Wunderground v.1.15,2013-08-23 00:10:00,
2013-08-22 17:15:00,84.6,50.6,29.73,SW,233,0.0,0.0,31,0.00,,,0.00,Wunderground v.1.15,2013-08-23 00:15:00,
2013-08-22 17:20:00,83.9,49.1,29.73,SW,233,0.0,0.0,30,0.00,,,0.00,Wunderground v.1.15,2013-08-23 00:20:00,
2013-08-22 17:25:00,84.3,52.1,29.73,West,259,0.0,0.0,33,0.00,,,0.00,Wunderground v.1.15,2013-08-23 00:25:00,
2013-08-22 17:30:00,83.7,50.7,29.73,West,259,0.0,0.0,32,0.00,,,0.00,Wunderground v.1.15,2013-08-23 00:30:00,
2013-08-22 17:35:00,83.3,51.2,29.73,West,259,0.0,0.0,33,0.00,,,0.00,Wunderground v.1.15,2013-08-23 00:35:00,
2013-08-22 17:40:00,83.2,53.5,29.73,SW,230,0.0,0.0,36,0.00,,,0.00,Wunderground v.1.15,2013-08-23 00:40:00,
2013-08-22 17:45:00,83.2,52.7,29.73,SW,231,0.0,0.0,35,0.00,,,0.00,Wunderground v.1.15,2013-08-23 00:45:00,
2013-08-22 17:50:00,82.6,52.9,29.73,SW,231,0.0,0.0,36,0.00,,,0.00,Wunderground v.1.15,2013-08-23 00:50:00,
2013-08-22 17:55:00,81.8,53.0,29.73,SW,230,0.0,0.0,37,0.00,,,0.00,Wunderground v.1.15,2013-08-23 00:55:00,
2013-08-22 18:00:00,81.2,51.7,29.73,SW,231,0.0,0.0,36,0.00,,,0.00,Wunderground v.1.15,2013-08-23 01:00:00,
2013-08-22 18:05:00,80.6,56.7,29.72,SW,231,0.0,0.0,44,0.00,,,0.00,Wunderground v.1.15,2013-08-23 01:05:00,
2013-08-22 18:10:00,80.1,56.2,29.73,SW,231,0.0,0.0,44,0.00,,,0.00,Wunderground v.1.15,2013-08-23 01:10:00,
2013-08-22 18:15:00,79.4,59.1,29.73,SW,231,0.0,0.0,50,0.00,,,0.00,Wunderground v.1.15,2013-08-23 01:15:00,
2013-08-22 18:20:00,78.8,56.3,29.72,SW,230,0.0,0.0,46,0.00,,,0.00,Wunderground v.1.15,2013-08-23 01:20:00,
2013-08-22 18:25:00,78.3,56.4,29.72,SW,231,0.0,0.0,47,0.00,,,0.00,Wunderground v.1.15,2013-08-23 01:25:00,
2013-08-22 18:30:00,77.9,58.3,29.72,SW,230,0.0,0.0,51,0.00,,,0.00,Wunderground v.1.15,2013-08-23 01:30:00,
2013-08-22 18:35:00,77.4,58.9,29.72,SW,231,0.0,0.0,53,0.00,,,0.00,Wunderground v.1.15,2013-08-23 01:35:00,
2013-08-22 18:40:00,76.8,57.8,29.72,SW,232,0.0,0.0,52,0.00,,,0.00,Wunderground v.1.15,2013-08-23 01:40:00,
2013-08-22 18:45:00,76.3,57.4,29.72,SW,232,0.0,0.0,52,0.00,,,0.00,Wunderground v.1.15,2013-08-23 01:45:00,
2013-08-22 18:50:00,75.8,58.0,29.72,SW,231,0.0,0.0,54,0.00,,,0.00,Wunderground v.1.15,2013-08-23 01:50:00,
2013-08-22 18:55:00,75.4,59.6,29.72,SW,232,0.0,0.0,58,0.00,,,0.00,Wunderground v.1.15,2013-08-23 01:55:00,
2013-08-22 19:00:00,75.0,58.2,29.72,SW,231,0.0,0.0,56,0.00,,,0.00,Wunderground v.1.15,2013-08-23 02:00:00,
2013-08-22 19:05:00,74.6,57.9,29.72,SW,233,0.0,0.0,56,0.00,,,0.00,Wunderground v.1.15,2013-08-23 02:05:00,
2013-08-22 19:10:00,73.9,58.2,29.72,SW,232,0.0,0.0,58,0.00,,,0.00,Wunderground v.1.15,2013-08-23 02:10:00,
2013-08-22 19:15:00,73.1,57.4,29.72,SW,232,0.0,0.0,58,0.00,,,0.00,Wunderground v.1.15,2013-08-23 02:15:00,
2013-08-22 19:20:00,72.5,57.4,29.72,SW,230,0.0,0.0,59,0.00,,,0.00,Wunderground v.1.15,2013-08-23 02:20:00,
2013-08-22 19:25:00,71.8,56.7,29.72,SW,233,0.0,0.0,59,0.00,,,0.00,Wunderground v.1.15,2013-08-23 02:25:00,
2013-08-22 19:30:00,71.1,56.0,29.72,SW,232,0.0,0.0,59,0.00,,,0.00,Wunderground v.1.15,2013-08-23 02:30:00,
2013-08-22 19:35:00,70.4,55.8,29.73,SW,231,0.0,0.0,60,0.00,,,0.00,Wunderground v.1.15,2013-08-23 02:35:00,
2013-08-22 19:40:00,69.8,55.7,29.73,SW,231,0.0,0.0,61,0.00,,,0.00,Wunderground v.1.15,2013-08-23 02:40:00,
2013-08-22 19:45:00,69.1,55.5,29.72,SW,231,0.0,0.0,62,0.00,,,0.00,Wunderground v.1.15,2013-08-23 02:45:00,
2013-08-22 19:50:00,68.4,56.2,29.72,SW,232,0.0,0.0,65,0.00,,,0.00,Wunderground v.1.15,2013-08-23 02:50:00,
2013-08-22 19:55:00,67.8,55.6,29.72,SW,232,0.0,0.0,65,0.00,,,0.00,Wunderground v.1.15,2013-08-23 02:55:00,
2013-08-22 20:00:00,67.1,55.4,29.72,SW,231,0.0,0.0,66,0.00,,,0.00,Wunderground v.1.15,2013-08-23 03:00:00,
2013-08-22 20:05:00,66.5,55.6,29.72,SW,233,0.0,0.0,68,0.00,,,0.00,Wunderground v.1.15,2013-08-23 03:05:00,
2013-08-22 20:10:00,66.0,55.5,29.72,SW,231,0.0,0.0,69,0.00,,,0.00,Wunderground v.1.15,2013-08-23 03:10:00,
2013-08-22 20:20:00,64.7,55.1,29.73,SW,232,0.0,0.0,71,0.00,,,0.00,Wunderground v.1.15,2013-08-23 03:20:00,
2013-08-22 20:25:00,64.2,55.0,29.73,SW,231,0.0,0.0,72,0.00,,,0.00,Wunderground v.1.15,2013-08-23 03:25:00,
2013-08-22 20:30:00,63.5,54.3,29.73,SW,231,0.0,0.0,72,0.00,,,0.00,Wunderground v.1.15,2013-08-23 03:30:00,
2013-08-22 20:35:00,62.9,53.4,29.73,SW,231,0.0,0.0,71,0.00,,,0.00,Wunderground v.1.15,2013-08-23 03:35:00,
2013-08-22 20:40:00,62.4,52.9,29.74,SW,231,0.0,0.0,71,0.00,,,0.00,Wunderground v.1.15,2013-08-23 03:40:00,
2013-08-22 20:45:00,61.8,52.7,29.74,SW,233,0.0,0.0,72,0.00,,,0.00,Wunderground v.1.15,2013-08-23 03:45:00,
2013-08-22 20:50:00,61.2,52.5,29.74,SW,232,0.0,0.0,73,0.00,,,0.00,Wunderground v.1.15,2013-08-23 03:50:00,
2013-08-22 20:55:00,60.8,52.5,29.74,SW,233,0.0,0.0,74,0.00,,,0.00,Wunderground v.1.15,2013-08-23 03:55:00,
2013-08-22 21:00:00,60.5,52.2,29.74,SW,231,0.0,0.0,74,0.00,,,0.00,Wunderground v.1.15,2013-08-23 04:00:00,
2013-08-22 21:05:00,60.2,51.9,29.74,SW,232,0.0,0.0,74,0.00,,,0.00,Wunderground v.1.15,2013-08-23 04:05:00,
2013-08-22 21:10:00,59.9,51.2,29.74,SW,232,0.0,0.0,73,0.00,,,0.00,Wunderground v.1.15,2013-08-23 04:10:00,
2013-08-22 21:15:00,59.7,51.4,29.74,SW,231,0.0,0.0,74,0.00,,,0.00,Wunderground v.1.15,2013-08-23 04:15:00,
2013-08-22 21:20:00,59.3,51.0,29.74,SW,233,0.0,0.0,74,0.00,,,0.00,Wunderground v.1.15,2013-08-23 04:20:00,
2013-08-22 21:25:00,59.0,51.1,29.74,SW,231,0.0,0.0,75,0.00,,,0.00,Wunderground v.1.15,2013-08-23 04:25:00,
2013-08-22 21:30:00,58.6,50.3,29.74,SW,233,0.0,0.0,74,0.00,,,0.00,Wunderground v.1.15,2013-08-23 04:30:00,
2013-08-22 21:35:00,58.3,50.4,29.74,SW,233,0.0,0.0,75,0.00,,,0.00,Wunderground v.1.15,2013-08-23 04:35:00,
2013-08-22 21:40:00,58.2,51.7,29.75,SW,231,0.0,0.0,79,0.00,,,0.00,Wunderground v.1.15,2013-08-23 04:40:00,
2013-08-22 21:45:00,58.3,51.5,29.75,SW,231,0.0,0.0,78,0.00,,,0.00,Wunderground v.1.15,2013-08-23 04:45:00,
2013-08-22 21:50:00,58.1,51.6,29.75,SW,231,0.0,0.0,79,0.00,,,0.00,Wunderground v.1.15,2013-08-23 04:50:00,
2013-08-22 21:55:00,57.9,51.4,29.75,SW,231,0.0,0.0,79,0.00,,,0.00,Wunderground v.1.15,2013-08-23 04:55:00,
2013-08-22 22:00:00,57.7,51.6,29.75,SW,231,0.0,0.0,80,0.00,,,0.00,Wunderground v.1.15,2013-08-23 05:00:00,
2013-08-22 22:05:00,57.4,51.3,29.74,SW,231,0.0,0.0,80,0.00,,,0.00,Wunderground v.1.15,2013-08-23 05:05:00,
2013-08-22 22:10:00,57.1,51.0,29.75,SW,231,0.0,0.0,80,0.00,,,0.00,Wunderground v.1.15,2013-08-23 05:10:00,
2013-08-22 22:15:00,56.9,50.8,29.75,SW,231,0.0,0.0,80,0.00,,,0.00,Wunderground v.1.15,2013-08-23 05:15:00,
2013-08-22 22:25:00,56.6,50.5,29.75,SW,231,0.0,0.0,80,0.00,,,0.00,Wunderground v.1.15,2013-08-23 05:25:00,
2013-08-22 22:30:00,56.9,51.1,29.75,SW,232,0.0,0.0,81,0.00,,,0.00,Wunderground v.1.15,2013-08-23 05:30:00,
2013-08-22 22:35:00,57.0,51.6,29.75,SW,231,0.0,0.0,82,0.00,,,0.00,Wunderground v.1.15,2013-08-23 05:35:00,
2013-08-22 22:40:00,56.9,51.5,29.75,SW,231,0.0,0.0,82,0.00,,,0.00,Wunderground v.1.15,2013-08-23 05:40:00,
2013-08-22 22:45:00,57.1,52.0,29.75,SW,231,0.0,0.0,83,0.00,,,0.00,Wunderground v.1.15,2013-08-23 05:45:00,
2013-08-22 22:50:00,57.2,51.8,29.76,SW,231,0.0,0.0,82,0.00,,,0.00,Wunderground v.1.15,2013-08-23 05:50:00,
2013-08-22 22:55:00,57.4,52.3,29.76,SW,232,0.0,0.0,83,0.00,,,0.00,Wunderground v.1.15,2013-08-23 05:55:00,
2013-08-22 23:00:00,57.9,52.4,29.76,SW,231,0.0,0.0,82,0.00,,,0.00,Wunderground v.1.15,2013-08-23 06:00:00,
2013-08-22 23:05:00,58.0,52.2,29.76,SW,231,0.0,0.0,81,0.00,,,0.00,Wunderground v.1.15,2013-08-23 06:05:00,
2013-08-22 23:10:00,58.0,52.2,29.76,SW,231,0.0,0.0,81,0.00,,,0.00,Wunderground v.1.15,2013-08-23 06:10:00,
2013-08-22 23:15:00,58.0,52.2,29.77,East,98,0.0,2.0,81,0.00,,,0.00,Wunderground v.1.15,2013-08-23 06:15:00,
2013-08-22 23:20:00,58.5,52.7,29.77,SSW,208,1.0,4.0,81,0.00,,,0.00,Wunderground v.1.15,2013-08-23 06:20:00,
2013-08-22 23:30:00,59.9,52.7,29.76,NE,46,2.0,3.0,77,0.00,,,0.00,Wunderground v.1.15,2013-08-23 06:30:00,
2013-08-22 23:35:00,60.1,52.5,29.76,NE,56,1.0,3.0,76,0.00,,,0.00,Wunderground v.1.15,2013-08-23 06:35:00,
2013-08-22 23:40:00,60.4,51.7,29.75,NNE,22,0.0,1.0,73,0.00,,,0.00,Wunderground v.1.15,2013-08-23 06:40:00,
2013-08-22 23:45:00,60.9,51.4,29.75,South,170,0.0,1.0,71,0.00,,,0.00,Wunderground v.1.15,2013-08-23 06:45:00,
2013-08-22 23:50:00,61.6,52.1,29.76,SE,128,0.0,0.0,71,0.00,,,0.00,Wunderground v.1.15,2013-08-23 06:50:00,
2013-08-22 23:55:00,62.0,50.9,29.75,NE,56,0.0,0.0,67,0.00,,,0.00,Wunderground v.1.15,2013-08-23 06:55:00,